Regional Weather Roundup
Issued by NWS

Home | Current Version | Previous Version | Text Only | Print | Product List | Glossary On
Versions: 1 2 3 4 5 6 7 8 9 10 11 12 13 14 15 16 17 18 19 20 21 22 23 24 25 26 27 28 29 30 31 32 33 34 35 36 37 38 39 40 41 42 43 44 45 46 47 48 49 50
000
ASHW40 PHFO 250112
RWRHI

WEATHER ROUNDUP FOR HAWAII
NATIONAL WEATHER SERVICE HONOLULU HI
300 PM HST SAT JUN 24 2017

THIS IS AN AUTOMATED REPORT THAT HAS NOT BEEN QUALITY CONTROLLED.

NOTE..."FAIR" INDICATES FEW OR NO CLOUDS BELOW 12,000 FEET WITH NO
SIGNIFICANT WEATHER AND/OR OBSTRUCTIONS TO VISIBILITY.

* - THESE SITES REPORT LIMITED FIELDS

HIZ001>004-250200-
KAUAI-NIIHAU-

CITY           SKY/WX    TMP DP  RH WIND       PRES   REMARKS
LIHUE APT      MOSUNNY   85  69  58 NE12      30.02S
PORT ALLEN*      N/A     84 N/A N/A NE10G21     N/A
POIPU*           N/A     84 N/A N/A NE9G17      N/A
PRINCEVILLE*     N/A     82 N/A N/A E9G15       N/A
KOKOLE POINT*  NOT AVBL
MOLOAA DAIRY*    N/A     84  70  61 E5G12       N/A
WAIMEA HTS*    NOT AVBL
PUU OPAE*      NOT AVBL
PUU LUA*       NOT AVBL
MAKAHA RIDGE*  NOT AVBL
$$

HIZ005>011-250200-
OAHU-

CITY           SKY/WX    TMP DP  RH WIND       PRES   REMARKS
HONOLULU       PTSUNNY   87  63  44 NE14      29.96F
KALAELOA       CLOUDY    83  70  64 SE15      29.99S
KANEOHE MCB    MOSUNNY   85  72  65 NE10      29.97  HX  91
WHEELER FIELD  LGT RAIN  78  68  72 SE5       29.98S
BELLOWS*       NOT AVBL
KAHUKU*        NOT AVBL
WHEELER*       NOT AVBL
WAIANAE HARBOR NOT AVBL
DILLINGHAM*      N/A     82  70  65 S3G15       N/A
KAHUKU TRN*      N/A     82  70  65 W9G18       N/A
KAWAILOA*        N/A     79  66  65 NE12G21     N/A
KII*             N/A     82  72  69 E13         N/A
MAKUA RANGE*     N/A     84  72  65 NE10G17     N/A
OAHU FOREST NW NOT AVBL
SCHOFIELD BRK*   N/A     84  73  70 MISG        N/A  HX  91
SCHOFIELD S*   NOT AVBL
WAIANAE VLY*   NOT AVBL
KUAOKALA*      NOT AVBL
HONOULIUULI*   NOT AVBL
MOKUOLOE IS*   NOT AVBL
PALEHUA*       NOT AVBL
WAIAWA PHB*    NOT AVBL
$$

HIZ012>013-250200-
MOLOKAI-

CITY           SKY/WX    TMP DP  RH WIND       PRES   REMARKS
MOLOKAI AIRPT  MOSUNNY   81  70  69 NE12      30.00S
KALAUPAPA      NOT AVBL
MAKAPULAPAI*   NOT AVBL
MOLOKAI 1*     NOT AVBL
PUU ALII*      NOT AVBL
$$

HIZ016-250200-
KAHOOLAWE-

CITY           SKY/WX    TMP DP  RH WIND       PRES   REMARKS
KAHOOLAWE*     NOT AVBL
HAKIOAWA*      NOT AVBL
HONOKANAIA*      N/A     85  66  52 E15G26    29.91F
KANELOA*         N/A     81  66  61 E17G25    30.05F
KEALIALALO*    NOT AVBL
LUA MAKIKA*    NOT AVBL
$$

HIZ014>015-250200-
LANAI-

CITY           SKY/WX    TMP DP  RH WIND       PRES   REMARKS
LANAI CITY     CLOUDY    75  67  76 NW6       30.05S
LANAI 1*       NOT AVBL
$$

HIZ017>028-250200-
MAUI-

CITY           SKY/WX    TMP DP  RH WIND       PRES   REMARKS
KAHULUI        MOSUNNY   87  70  56 NE23      29.96F HX  92
KAPALUA-W MAUI MOSUNNY   82  66  57 W9        29.98
HANA AIRPORT   PTSUNNY   82  70  65 NE10      30.02S
HANA*            N/A     81 N/A N/A E6G12       N/A
HALEAKALA SUMM   N/A     63  48  59 SE6         N/A
MAALAEA BAY*   NOT AVBL
HALEAKALA*     NOT AVBL
KAUPO GAP*     NOT AVBL
KULA 1*          N/A     56  55  98 W3G12       N/A
$$

HIZ023>026-250200-
BIG ISLAND OF HAWAII COAST AND LOWER SLOPES-

CITY           SKY/WX    TMP DP  RH WIND       PRES   REMARKS
KAILUA KONA    PTSUNNY   83  69  62 W10       29.96S
HILO           MOSUNNY   83  67  58 NE12      29.98F
HONOKAA*         N/A     81 N/A N/A VRB1        N/A
KAWAIHAE MWT*    N/A     84 N/A N/A W8          N/A
KAWAIHAE*      NOT AVBL
SOUTH POINT*     N/A     79 N/A N/A N15G22      N/A
UPOLU AIRPORT* NOT AVBL
KAMUELA*       MOCLDY    81  63  54 NE14      30.08S
HAKALAU*         N/A     56  55  97 NE3         N/A
KALOKO-HONOKO* NOT AVBL
PALI 2*          N/A     70  64  83 W7G13       N/A
KEALAKOMO*       N/A     81  68  65 E14G20      N/A
KAUPULEHU*     NOT AVBL
KAPAPALA*        N/A     73  64  72 NW3G12      N/A
LOWER KAHUKU*  NOT AVBL
PUHE CS*       NOT AVBL
PUHO CS*       NOT AVBL
PTA KEAMUKU*   NOT AVBL
WAIKOLOA*      NOT AVBL
$$

HIZ027>028-250200-
BIG ISLAND OF HAWAII INTERIOR AND SUMMMITS-

CITY           SKY/WX    TMP DP  RH WIND       PRES   REMARKS
BRADSHAW FIELD MOSUNNY   70  56  61 W12       30.29S
MK VISITOR CEN   N/A     55  46  71 W7          N/A
MAUNA KEA*       N/A     48  28  46 NE8         N/A
MAUNA LOA*     NOT AVBL
MAUNA LOA 1*   NOT AVBL
PTA KIPUKA*      N/A     70  59  68 N8G15       N/A
PTA RANGE 17*    N/A     64  57  77 NW10G18     N/A
PTA WEST*        N/A     66  63  88 NW8G16      N/A
NENE CABIN*    NOT AVBL
AHUMOA*        NOT AVBL
PTA PORTABLE*  NOT AVBL
PUU MALI*        N/A     64  59  82 VRB8        N/A
$$

HIC003-250200-
NORTHWEST ISLANDS-

CITY           SKY/WX    TMP DP  RH WIND       PRES   REMARKS
MIDWAY ISLAND  MOSUNNY   82  66  57 E16       30.16F
MIDWAY NOS*    NOT AVBL
FRENCH FRIGATE NOT AVBL
$$

PHZ110>124-180-250200-
BUOY REPORTS

STATION/POSITION TIME  TEMP    WIND        PRES    WAVE   SWELL
                       AIR SEA DIR/SP/G            HT/PER HT/DIR
                 (UTC) (F)     (DEG/KT/KT) (MB)    (FT/S) (FT/D)
BUOY 51001       0050   79      70/ 12/ 14 1017.8R   6/14   5/150
BUOY 51101       0050   79 81   60/ 10/ 12 1017.6F   6/14   5/160
BUOY 51100       NOT AVBL
BUOY 51002       0050           90/ 10/ 12 1014.0F   5/14   5/150
BUOY 51003       0050   80 82   70/  6/ 10 1014.6F   5/14   5/130
BUOY 51004       0050      80   70/ 12/ 14 1014.2F   5/13   5/160
BARBERS PT BUOY  NOT AVBL
WAIMEA BAY BUOY  0002      79                N/A     4/ 9   2/340
KAILUA BAY BUOY  0034      80                N/A     5/ 8   2/ 40
LANAI BUOY       NOT AVBL
BARBERS PT 2     NOT AVBL
PAUWELA MAUI     0039      79                N/A     4/ 8   2/ 50
HILO             0057      80                N/A     4/ 9   2/130
KANEOHE BAY BUOY 0025      80                N/A     4/ 9   2/ 30
HANALEI KAUAI    0052      80                N/A     4/ 8   2/ 20
KAHULUI HARBOR   0042   79 80   20/ 15/ 21 1015.1S
HONOLULU HARBOR  0042   84 80   60/  9/ 14 1015.6F
KILO NALU        NOT AVBL
HILO HARBOR      0042   85 79   50/  9/ 13 1015.0F
MOKUOLOE         0036   81 82   50/  9/ 13 1015.8F
NAWILIWILI       0042   80 81   50/  8/ 12 1016.0S
WHOTS BUOY       NOT AVBL
BUOY 51028       NOT AVBL
$$

......................KEY........................................
  SKY/WX - SKY CONDITIONS/PRESENT WEATHER
  TMP    - TEMPERATURE IN FAHRENHEIT
  DWPT   - DEWPOINT IN FAHRENHEIT
  RH     - RELATIVE HUMIDITY IN PERCENT
  WIND   - DIRECTION AND SPEED /MPH FOR ISLANDS...KTS FOR BUOYS/
  PRES   - MEAN SEA LEVEL PRESSURE IN INCHES OF HG
  VSB    - VISIBILITY IN MILES
  HX     - HEAT INDEX
  WCI    - WIND CHILL INDEX
  VRB    - VARIABLE WIND DIRECTION
  N/A    - NOT AVAILABLE



USA.gov is the U.S. government's official web portal to all federal, state and local government web resources and services.